Location: Unspecified
(0.0000°N, 0.0000°E)
Time: 14:59:31
(UTC+00:00)

Tiros 1 - All Passes

Search period start: 27 June 2016 00:00
Search period end: 07 July 2016 00:00
Orbit: 631 x 665 km, 48.4° (Epoch: 26 June)

Date Brightness Start Highest point End Pass type
(mag) Time Alt. Az. Time Alt. Az. Time Alt. Az.
27 Jun - 02:01:33 10° SSW 02:05:56 34° SE 02:10:16 10° ENE night (unlit)
27 Jun - 03:44:37 10° W 03:47:59 19° NW 03:51:20 10° N visible
27 Jun - 14:14:23 10° NNW 14:18:56 63° NE 14:23:32 10° SE daylight
28 Jun - 02:27:24 10° SW 02:32:12 69° NW 02:36:56 10° NNE visible
28 Jun - 13:00:13 10° N 13:03:09 17° NE 13:06:06 10° E daylight
28 Jun - 14:40:57 10° WNW 14:45:11 36° SW 14:49:28 10° SSE daylight
29 Jun - 01:12:09 10° SSW 01:16:24 31° SE 01:20:38 10° ENE night (unlit)
29 Jun - 02:54:51 10° W 02:58:28 21° NW 03:02:03 10° N visible
29 Jun - 13:24:56 10° NNW 13:29:26 55° NE 13:33:59 10° SE daylight
29 Jun - 15:10:11 10° WSW 15:11:33 11° SW 15:12:54 10° SSW daylight
30 Jun - 01:37:51 10° SW 01:42:40 78° NW 01:47:27 10° NE night (unlit)
30 Jun - 12:11:02 10° NNE 12:13:39 15° NE 12:16:16 10° E daylight
30 Jun - 13:51:22 10° WNW 13:55:41 40° SW 14:00:03 10° SSE daylight
01 Jul - 00:22:45 10° S 00:26:53 28° SE 00:30:58 10° ENE night (unlit)
01 Jul - 02:05:07 10° WSW 02:08:56 23° NW 02:12:45 10° N night (unlit)
01 Jul - 12:35:30 10° NNW 12:39:56 49° NE 12:44:25 10° SE daylight
01 Jul - 14:20:03 10° WSW 14:22:01 12° SW 14:24:00 10° SSW daylight
02 Jul - 00:48:19 10° SW 00:53:09 87° NW 00:57:57 10° NE night (unlit)
02 Jul - 11:21:55 10° NNE 11:24:08 13° NE 11:26:21 10° E daylight
02 Jul - 13:01:47 10° NW 13:06:11 45° SW 13:10:38 10° SSE daylight
02 Jul - 23:33:24 10° S 23:37:21 25° SE 23:41:18 10° ENE night (unlit)
03 Jul - 01:15:25 10° WSW 01:19:25 26° NW 01:23:24 10° N night (unlit)
03 Jul - 11:46:04 10° NNW 11:50:27 43° NE 11:54:50 10° ESE daylight
03 Jul - 13:30:06 10° W 13:32:30 14° SW 13:34:56 10° SSW daylight
03 Jul - 23:58:48 10° SW 00:03:38 84° SE 00:08:25 10° NE night (unlit)
04 Jul - 10:32:55 10° NNE 10:34:37 12° NE 10:36:19 10° ENE daylight
04 Jul - 12:12:12 10° NW 12:16:41 51° SW 12:21:11 10° SSE daylight
04 Jul - 22:44:03 10° S 22:47:50 23° SE 22:51:35 10° ENE night (unlit)
05 Jul - 00:25:44 10° WSW 00:29:53 29° NW 00:34:02 10° N night (unlit)
05 Jul - 10:56:39 10° NNW 11:00:57 38° NE 11:05:15 10° ESE daylight
05 Jul - 12:40:14 10° W 12:42:59 16° SW 12:45:46 10° SSW daylight
05 Jul - 23:09:18 10° SW 23:14:06 75° SE 23:18:54 10° NE night (unlit)
06 Jul - 09:44:15 10° NE 09:45:06 10° NE 09:45:58 10° ENE daylight
06 Jul - 11:22:39 10° NW 11:27:11 58° SW 11:31:44 10° SSE daylight
06 Jul - 21:54:45 10° S 21:58:18 20° SE 22:01:50 10° E night (unlit)
06 Jul - 23:36:04 10° WSW 23:40:21 32° NW 23:44:39 10° NNE night (unlit)
